DW0805 Ramloese DK current weather conditions

sailwx.info

Wind from 243 at 8 knots gusting 13

Air temperature 10.6° C
Dewpoint 9.8° C

Last reported at 2014-Oct-25 12:45 UTC.
Time now 2014-Oct-25 13:35 UTC

Location: N 56°01' E 012°05'.
View on Google Maps.

See reports from other nearby stations

  
Tides and Currents Weather Stations Pressure Air Temp Water Temp Dewpoint Dewpoint Depression Visibility Wind Speed Wind Dir Waves Ship Positions
date/time (UTC)wind fromknots sea level pressurealtimeterstation pressurevisibilityair tempwater tempwave heightnotes
2014-Oct-25 12:45 243 8 gusting 13 10.6
2014-Oct-25 12:35 266 6 gusting 12 10.6
2014-Oct-25 12:25 251 6 gusting 8 10.6
2014-Oct-25 12:15 335 5 gusting 2 10.6
2014-Oct-25 12:05 335 5 gusting 2 10.6
2014-Oct-25 11:55 335 5 gusting 2 10.6
2014-Oct-25 11:45 335 5 gusting 2 10.6
2014-Oct-25 11:35 243 4 gusting 8 10.6
2014-Oct-25 11:25 247 4 gusting 12 10.0
2014-Oct-25 11:15 242 6 gusting 12 10.0
2014-Oct-25 11:05 234 5 gusting 11 10.0
2014-Oct-25 10:55 237 6 gusting 12 10.0
2014-Oct-25 10:45 243 5 gusting 13 10.0
2014-Oct-25 10:35 238 5 gusting 11 10.0
2014-Oct-25 10:25 255 6 gusting 11 10.0
2014-Oct-25 10:15 211 7 gusting 12 10.0
2014-Oct-25 10:05 312 6 gusting 13 10.0
2014-Oct-25 09:55 248 6 gusting 11 10.0
2014-Oct-25 09:45 292 7 gusting 12 10.0
2014-Oct-25 09:35 240 6 gusting 12 9.4
2014-Oct-25 09:25 325 6 gusting 12 9.4
2014-Oct-25 09:15 213 8 gusting 13 9.4
2014-Oct-25 09:05 294 7 gusting 13 9.4
2014-Oct-25 08:55 279 7 gusting 10 9.4
2014-Oct-25 08:45 335 6 gusting 12 9.4
2014-Oct-25 08:35 237 6 gusting 13 9.4
2014-Oct-25 08:25 247 6 gusting 13 9.4
2014-Oct-25 08:15 231 6 gusting 14 9.4
2014-Oct-25 08:05 231 6 gusting 14 9.4
2014-Oct-25 07:55 257 9 gusting 14 9.4
2014-Oct-25 07:45 269 8 gusting 14 9.4
2014-Oct-25 07:35 227 9 gusting 15 9.4
2014-Oct-25 07:15 186 13 gusting 11 11.1
2014-Oct-25 07:05 186 13 gusting 11 11.1
2014-Oct-25 06:55 186 13 gusting 11 11.1
2014-Oct-25 06:45 186 13 gusting 11 11.1
2014-Oct-25 06:35 186 13 gusting 11 11.1
2014-Oct-25 06:25 186 13 gusting 11 11.1
2014-Oct-25 06:15 186 13 gusting 11 11.1
2014-Oct-25 06:05 186 13 gusting 11 11.1
2014-Oct-25 05:55 186 13 gusting 11 11.1
2014-Oct-25 05:45 186 13 gusting 11 11.1
2014-Oct-25 05:35 186 13 gusting 11 11.1
2014-Oct-25 05:25 186 13 gusting 11 11.1
2014-Oct-25 05:15 186 13 gusting 11 11.1
2014-Oct-25 05:05 186 13 gusting 11 11.1
2014-Oct-25 04:55 186 13 gusting 11 11.1
2014-Oct-25 04:45 186 13 gusting 11 11.1
2014-Oct-25 04:35 186 13 gusting 11 11.1
2014-Oct-25 04:25 186 13 gusting 11 11.1
2014-Oct-25 04:15 186 13 gusting 11 11.1
2014-Oct-25 04:05 186 13 gusting 11 11.1
2014-Oct-25 03:55 186 13 gusting 11 11.1
2014-Oct-25 03:45 186 13 gusting 11 11.1
2014-Oct-25 03:35 186 13 gusting 11 11.1
2014-Oct-25 03:25 186 13 gusting 11 11.1
2014-Oct-25 03:15 186 13 gusting 11 11.1
2014-Oct-25 03:05 186 13 gusting 11 11.1
2014-Oct-25 02:55 186 13 gusting 11 11.1
2014-Oct-25 02:45 186 13 gusting 11 11.1
2014-Oct-25 02:35 186 13 gusting 11 11.1
2014-Oct-25 02:25 186 13 gusting 11 11.1
2014-Oct-25 02:15 186 13 gusting 11 11.1
2014-Oct-25 02:05 186 13 gusting 11 11.1
2014-Oct-25 01:55 186 13 gusting 11 11.1
2014-Oct-25 01:45 186 13 gusting 11 11.1
2014-Oct-25 01:35 186 13 gusting 11 11.1
2014-Oct-25 01:25 186 13 gusting 11 11.1
2014-Oct-25 01:15 186 13 gusting 11 11.1
2014-Oct-25 01:05 186 13 gusting 11 11.1
2014-Oct-25 00:55 186 13 gusting 11 11.1
2014-Oct-25 00:45 186 13 gusting 11 11.1
2014-Oct-25 00:35 186 13 gusting 11 11.1
2014-Oct-25 00:25 186 13 gusting 11 11.1
2014-Oct-25 00:15 186 13 gusting 11 11.1
2014-Oct-25 00:05 186 13 gusting 11 11.1
2014-Oct-24 23:55 186 13 gusting 11 11.1
2014-Oct-24 23:45 186 13 gusting 11 11.1
2014-Oct-24 23:35 186 13 gusting 11 11.1
2014-Oct-24 23:25 186 13 gusting 11 11.1
2014-Oct-24 23:15 186 13 gusting 11 11.1
2014-Oct-24 23:05 186 13 gusting 11 11.1
2014-Oct-24 22:55 186 13 gusting 11 11.1
2014-Oct-24 22:45 186 13 gusting 11 11.1
2014-Oct-24 22:35 186 13 gusting 11 11.1
2014-Oct-24 22:25 186 13 gusting 11 11.1
2014-Oct-24 22:15 186 13 gusting 11 11.1
2014-Oct-24 22:05 186 13 gusting 11 11.1
2014-Oct-24 21:55 186 13 gusting 11 11.1
2014-Oct-24 21:45 186 13 gusting 11 11.1
2014-Oct-24 21:35 186 13 gusting 11 11.1
2014-Oct-24 21:25 186 13 gusting 11 11.1
2014-Oct-24 21:15 186 13 gusting 11 11.1
2014-Oct-24 21:05 186 13 gusting 11 11.1
2014-Oct-24 20:55 186 13 gusting 11 11.1
2014-Oct-24 20:45 186 13 gusting 11 11.1
2014-Oct-24 20:35 186 13 gusting 11 11.1
2014-Oct-24 20:25 186 13 gusting 11 11.1
2014-Oct-24 20:15 186 13 gusting 13 11.1
2014-Oct-24 20:05 189 11 gusting 17 11.1
2014-Oct-24 19:55 193 11 gusting 15 11.1
2014-Oct-24 19:45 187 9 gusting 14 11.1
2014-Oct-24 19:35 194 7 gusting 14 11.1
2014-Oct-24 19:25 184 12 gusting 15 11.1
2014-Oct-24 19:15 188 10 gusting 15 11.1
2014-Oct-24 19:05 190 9 gusting 15 11.1
2014-Oct-24 18:55 186 12 gusting 15 11.1
2014-Oct-24 18:45 188 10 gusting 15 11.1
2014-Oct-24 18:35 184 10 gusting 14 11.1
2014-Oct-24 18:25 190 11 gusting 15 11.1
2014-Oct-24 18:15 190 9 gusting 15 11.1
2014-Oct-24 18:05 193 10 gusting 15 11.1
2014-Oct-24 17:55 194 11 gusting 14 11.1
2014-Oct-24 17:45 192 10 gusting 15 11.1
2014-Oct-24 17:35 194 8 gusting 14 11.1
2014-Oct-24 17:25 193 9 gusting 15 11.1
2014-Oct-24 17:15 192 8 gusting 13 11.1
2014-Oct-24 17:05 186 10 gusting 13 11.1
2014-Oct-24 16:55 183 11 gusting 15 11.1
2014-Oct-24 16:45 190 9 gusting 15 11.7
2014-Oct-24 16:35 197 8 gusting 14 11.7
2014-Oct-24 16:25 187 10 gusting 15 11.7
2014-Oct-24 16:15 180 10 gusting 17 11.7
2014-Oct-24 16:05 197 8 gusting 14 11.7
2014-Oct-24 15:55 190 8 gusting 15 11.7
2014-Oct-24 15:45 189 8 gusting 15 11.7
2014-Oct-24 15:35 192 8 gusting 17 11.7
2014-Oct-24 15:25 196 7 gusting 17 12.2
2014-Oct-24 15:15 191 10 gusting 14 12.2
2014-Oct-24 15:05 195 11 gusting 15 12.2
2014-Oct-24 14:55 202 6 gusting 15 12.2
2014-Oct-24 14:45 202 7 gusting 13 12.2
2014-Oct-24 14:15 208 8 gusting 15 12.2
2014-Oct-24 14:05 201 8 gusting 14 12.2
2014-Oct-24 13:55 204 6 gusting 14 12.2
2014-Oct-24 13:45 203 8 gusting 15 12.2
2014-Oct-24 13:35 195 10 gusting 17 12.2
2014-Oct-24 13:25 182 13 gusting 17 12.8
2014-Oct-24 13:15 196 9 gusting 13 12.8
2014-Oct-24 13:05 199 9 gusting 15 12.2
2014-Oct-24 12:55 193 12 gusting 17 12.2
2014-Oct-24 12:45 187 10 gusting 14 12.2
2014-Oct-24 12:35 197 7 gusting 15 12.2
2014-Oct-24 12:25 190 11 gusting 17 12.2
2014-Oct-24 12:15 191 10 gusting 15 12.2
2014-Oct-24 12:05 190 7 gusting 17 12.2
2014-Oct-24 11:55 199 10 gusting 14 12.2
2014-Oct-24 11:45 198 7 gusting 14 12.2
2014-Oct-24 11:35 190 8 gusting 18 12.2
2014-Oct-24 11:25 196 7 gusting 14 12.2
2014-Oct-24 11:15 202 7 gusting 14 12.2
2014-Oct-24 11:05 195 8 gusting 17 12.2
2014-Oct-24 10:55 197 9 gusting 14 11.7
2014-Oct-24 10:45 201 9 gusting 14 11.7
2014-Oct-24 10:35 192 7 gusting 14 11.7
2014-Oct-24 10:25 199 7 gusting 13 11.7
2014-Oct-24 10:15 206 8 gusting 15 11.7
2014-Oct-24 10:05 200 7 gusting 13 11.7
2014-Oct-24 09:55 199 8 gusting 15 11.7
2014-Oct-24 09:45 198 8 gusting 18 11.7
2014-Oct-24 09:35 205 9 gusting 17 11.7
2014-Oct-24 09:25 198 9 gusting 14 11.7
2014-Oct-24 09:15 202 8 gusting 15 11.7
2014-Oct-24 09:05 204 8 gusting 15 11.7
2014-Oct-24 08:55 196 9 gusting 13 11.7
2014-Oct-24 08:45 197 9 gusting 14 11.7
2014-Oct-24 08:35 188 8 gusting 13 11.7
2014-Oct-24 08:25 193 8 gusting 14 11.7
2014-Oct-24 08:15 186 10 gusting 14 11.1
2014-Oct-24 08:05 186 8 gusting 13 11.1
2014-Oct-24 07:55 188 9 gusting 14 11.1
2014-Oct-24 07:45 196 8 gusting 13 11.1
2014-Oct-24 07:35 196 10 gusting 14 11.1
2014-Oct-24 07:25 193 10 gusting 13 11.1
2014-Oct-24 07:15 186 8 gusting 13 11.1
2014-Oct-24 07:05 187 8 gusting 14 11.1
2014-Oct-24 06:55 200 7 gusting 14 11.1
2014-Oct-24 06:45 193 8 gusting 13 11.1
2014-Oct-24 06:35 182 10 gusting 14 11.1
2014-Oct-24 06:25 184 11 gusting 14 11.1
2014-Oct-24 06:15 189 8 gusting 13 11.1
2014-Oct-24 06:05 190 7 gusting 13 11.1
2014-Oct-24 05:55 186 6 gusting 13 11.1
2014-Oct-24 05:45 194 8 gusting 13 11.1
2014-Oct-24 05:35 188 7 gusting 12 11.1
2014-Oct-24 05:25 189 7 gusting 13 11.1
2014-Oct-24 05:15 189 7 gusting 13 11.1
2014-Oct-24 05:05 188 7 gusting 11 11.1
2014-Oct-24 04:55 199 6 gusting 13 11.1
2014-Oct-24 04:45 196 6 gusting 12 11.1
2014-Oct-24 04:35 198 6 gusting 11 11.1
2014-Oct-24 04:25 197 4 gusting 13 11.1
2014-Oct-24 04:15 194 6 gusting 13 11.1
2014-Oct-24 04:05 196 7 gusting 13 11.1
2014-Oct-24 03:55 205 8 gusting 14 11.1
2014-Oct-24 03:45 181 9 gusting 15 11.1
2014-Oct-24 03:35 186 7 gusting 13 11.1
2014-Oct-24 03:25 188 9 gusting 14 11.1
2014-Oct-24 03:15 194 7 gusting 12 11.1
2014-Oct-24 03:05 189 9 gusting 13 11.1
2014-Oct-24 02:55 187 7 gusting 14 11.1
2014-Oct-24 02:45 187 10 gusting 14 11.1
2014-Oct-24 02:35 185 8 gusting 13 11.1
2014-Oct-24 02:25 183 8 gusting 14 11.1
2014-Oct-24 02:15 186 10 gusting 14 11.1
2014-Oct-24 02:05 197 9 gusting 14 11.1
2014-Oct-24 01:55 194 10 gusting 14 11.1
2014-Oct-24 01:45 190 9 gusting 13 11.1
2014-Oct-24 01:35 191 10 gusting 14 11.1
2014-Oct-24 01:25 182 7 gusting 13 11.1
2014-Oct-24 01:15 177 7 gusting 13 11.1
2014-Oct-24 01:05 176 6 gusting 13 11.1
2014-Oct-24 00:55 180 7 gusting 13 11.1
2014-Oct-24 00:45 180 7 gusting 13 11.1
2014-Oct-24 00:35 180 7 gusting 13 11.1
2014-Oct-24 00:25 182 6 gusting 12 11.1
2014-Oct-24 00:15 184 4 gusting 11 11.1
2014-Oct-24 00:05 170 6 gusting 10 11.1
2014-Oct-23 23:55 179 6 gusting 12 11.1
2014-Oct-23 23:45 177 8 gusting 13 11.1
2014-Oct-23 23:35 185 7 gusting 13 11.1
2014-Oct-23 23:25 187 10 gusting 12 10.6
2014-Oct-23 23:15 188 6 gusting 13 10.6
2014-Oct-23 23:05 176 7 gusting 12 10.6
2014-Oct-23 22:55 179 8 gusting 13 10.6
2014-Oct-23 22:45 186 9 gusting 13 10.6
2014-Oct-23 22:35 186 9 gusting 15 10.6
2014-Oct-23 22:25 182 10 gusting 15 10.6
2014-Oct-23 22:15 178 8 gusting 14 10.6
2014-Oct-23 22:05 186 8 gusting 13 10.6
2014-Oct-23 21:55 175 7 gusting 13 10.6
2014-Oct-23 21:45 181 7 gusting 14 10.6
2014-Oct-23 21:35 184 8 gusting 14 11.1
2014-Oct-23 21:25 187 8 gusting 13 11.1
2014-Oct-23 21:15 188 9 gusting 14 11.1
2014-Oct-23 21:05 183 7 gusting 12 11.1
2014-Oct-23 20:55 184 9 gusting 14 11.1
2014-Oct-23 20:45 188 11 gusting 15 11.1
2014-Oct-23 20:35 186 7 gusting 13 11.1
2014-Oct-23 20:25 186 9 gusting 14 11.1
2014-Oct-23 20:15 184 8 gusting 13 11.1
2014-Oct-23 20:05 189 6 gusting 10 11.1
2014-Oct-23 19:55 182 6 gusting 12 11.1
2014-Oct-23 19:45 184 6 gusting 12 11.1
2014-Oct-23 19:35 176 6 gusting 10 11.1
2014-Oct-23 19:25 180 6 gusting 10 11.1
2014-Oct-23 19:15 175 5 gusting 11 11.1
2014-Oct-23 19:05 178 4 gusting 10 11.1
2014-Oct-23 18:55 165 3 gusting 7 11.1
2014-Oct-23 18:45 147 3 gusting 8 11.1
2014-Oct-23 18:25 173 3 gusting 10 11.1
2014-Oct-23 18:15 169 5 gusting 8 11.1
2014-Oct-23 18:05 172 5 gusting 8 10.6
2014-Oct-23 17:55 173 2 gusting 8 10.6
2014-Oct-23 17:45 145 2 gusting 7 10.6
2014-Oct-23 17:35 149 4 gusting 10 10.6
2014-Oct-23 17:25 153 5 gusting 11 10.0
2014-Oct-23 17:15 150 6 gusting 11 10.0
2014-Oct-23 17:05 141 6 gusting 12 10.6
2014-Oct-23 16:55 159 5 gusting 12 10.6
2014-Oct-23 16:45 152 5 gusting 10 10.6
2014-Oct-23 16:35 163 5 gusting 7 10.6
2014-Oct-23 16:25 159 4 gusting 8 10.6
2014-Oct-23 16:15 152 4 gusting 14 10.6
2014-Oct-23 16:05 180 3 gusting 13 10.6
2014-Oct-23 15:55 156 5 gusting 12 10.6
2014-Oct-23 15:45 152 6 gusting 13 10.6
2014-Oct-23 15:35 145 6 gusting 13 10.6
2014-Oct-23 15:25 145 7 gusting 12 10.6
2014-Oct-23 15:15 153 6 gusting 11 10.6
2014-Oct-23 15:05 150 5 gusting 10 11.1
2014-Oct-23 14:55 169 4 gusting 11 11.1
2014-Oct-23 14:45 161 5 gusting 13 11.1
2014-Oct-23 14:35 144 6 gusting 14 11.1
2014-Oct-23 14:25 148 8 gusting 12 11.1
2014-Oct-23 14:15 139 5 gusting 8 11.1
2014-Oct-23 14:05 178 4 gusting 11 11.1
2014-Oct-23 13:55 155 5 gusting 8 11.1
2014-Oct-23 13:45 164 5 gusting 10 11.1
2014-Oct-23 13:35 149 4 gusting 11 11.1
2014-Oct-23 13:25 157 5 gusting 11 11.1
2014-Oct-23 13:15 159 2 gusting 8 11.1
2014-Oct-23 13:05 178 6 gusting 11 11.1